Weather History for Park Rapids, MN

Change the Weather History Date:

Thursday, May 23, 2013

  Actual Average Record
Temperature  
Mean Temperature 54 °F -  
Max Temperature 64 °F 69 °F 87 °F (1980)
Min Temperature 43 °F 44 °F 26 °F (1963)
Degree Days  
Heating Degree Days 11    
Growing Degree Days 4 (Base 50)    
Moisture  
Dew Point 29 °F    
Average Humidity 42    
Maximum Humidity 68    
Minimum Humidity 18    
Precipitation  
Precipitation 0.00 in - - ()
Sea Level Pressure  
Sea Level Pressure 30.28 in    
Wind  
Wind Speed 7 mph (ENE)    
Max Wind Speed 10 mph    
Max Gust Speed 18 mph    
Visibility 10 miles    
Events      
Averages and records for this station are not official NWS values.
T = Trace of Precipitation, MM = Missing Value Source: NWS Daily Summary

Daily Weather History Graph

Daily Weather History Graph

Search for Another Location

Airport:

Trip Planner

Search our weather history database for the weather conditions in past years. The results will help you decide how hot, cold, wet, or windy it might be!

Date:

Astronomy

May. 23, 2013 Rise Set
Actual Time 5:36 AM CDT 8:58 PM CDT
Civil Twilight 4:59 AM CDT 9:35 PM CDT
Nautical Twilight 4:10 AM CDT 10:24 PM CDT
Astronomical Twilight 3:07 AM CDT 11:28 PM CDT
Moon 7:27 PM CDT (5/23) 4:28 AM CDT (5/23)
Length of Visible Light 16h 36m
Length of Day
15h 22m
Waxing Gibbous, 97% of the Moon is Illuminated
May 23
Waxing Gibbous
May 24
Full
May 31
Last Quarter
Jun 8
New
Jun 16
First Quarter

Hourly Weather History & Observations

Time (CDT) Temp. Windchill Dew Point Humidity Pressure Visibility Wind Dir Wind Speed Gust Speed Precip Events Conditions
12:53 AM 55.0 °F - 39.0 °F 55% 30.12 in 10.0 mi NE 10.4 mph 17.3 mph N/A   Clear
1:53 AM 53.1 °F - 37.0 °F 55% 30.14 in 10.0 mi NE 6.9 mph - N/A   Clear
2:53 AM 51.1 °F - 37.0 °F 59% 30.17 in 10.0 mi NE 8.1 mph - N/A   Clear
3:53 AM 48.9 °F - 36.0 °F 61% 30.19 in 10.0 mi NNE 6.9 mph - N/A   Clear
4:53 AM 46.9 °F - 36.0 °F 66% 30.22 in 10.0 mi NNE 5.8 mph - N/A   Clear
5:53 AM 45.0 °F 41.8 °F 35.1 °F 68% 30.25 in 10.0 mi NNE 5.8 mph - N/A   Clear
6:53 AM 46.9 °F - 34.0 °F 61% 30.27 in 10.0 mi Variable 4.6 mph - N/A   Clear
7:53 AM 48.9 °F - 34.0 °F 56% 30.29 in 10.0 mi NE 8.1 mph - N/A   Clear
8:53 AM 51.1 °F - 35.1 °F 54% 30.30 in 10.0 mi NNE 5.8 mph - N/A   Clear
9:53 AM 52.0 °F - 30.9 °F 45% 30.32 in 10.0 mi NNE 10.4 mph 16.1 mph N/A   Clear
10:53 AM 54.0 °F - 28.9 °F 38% 30.32 in 10.0 mi ENE 4.6 mph - N/A   Clear
11:53 AM 55.9 °F - 28.0 °F 34% 30.32 in 10.0 mi Variable 5.8 mph - N/A   Clear
12:53 PM 59.0 °F - 25.0 °F 27% 30.32 in 10.0 mi Variable 5.8 mph - N/A   Clear
1:53 PM 61.0 °F - 19.9 °F 21% 30.32 in 10.0 mi East 8.1 mph 18.4 mph N/A   Clear
2:53 PM 61.0 °F - 21.9 °F 22% 30.32 in 10.0 mi East 9.2 mph - N/A   Clear
3:53 PM 63.0 °F - 21.9 °F 21% 30.31 in 10.0 mi NE 8.1 mph - N/A   Clear
4:53 PM 63.0 °F - 21.9 °F 21% 30.30 in 10.0 mi ENE 6.9 mph - N/A   Clear
5:53 PM 63.0 °F - 19.9 °F 19% 30.30 in 10.0 mi East 9.2 mph - N/A   Clear
6:53 PM 62.1 °F - 18.0 °F 18% 30.30 in 10.0 mi East 9.2 mph - N/A   Clear
7:53 PM 62.1 °F - 19.9 °F 20% 30.29 in 10.0 mi East 4.6 mph - N/A   Clear
8:53 PM 57.9 °F - 25.0 °F 28% 30.29 in 10.0 mi East 3.5 mph - N/A   Clear
9:53 PM 54.0 °F - 28.0 °F 37% 30.31 in 10.0 mi East 4.6 mph - N/A   Clear
10:53 PM 46.0 °F - 30.0 °F 54% 30.33 in 10.0 mi Calm Calm - N/A   Clear
11:53 PM 43.0 °F - 30.9 °F 62% 30.34 in 10.0 mi Calm Calm - N/A   Clear